Regional Weather Roundup
Issued by NWS

Home | Current Version | Previous Version | Text Only | Print | Product List | Glossary On
Versions: 1 2 3 4 5 6 7 8 9 10 11 12 13 14 15 16 17 18 19 20 21 22 23 24 25 26 27 28 29 30 31 32 33 34 35 36 37 38 39 40 41 42 43 44 45 46 47 48 49 50
000
ASUS43 KDTX 302110
RWRMI
MICHIGAN HOURLY REGIONAL WEATHER ROUNDUP
NATIONAL WEATHER SERVICE DETROIT/PONTIAC MI
500 PM EDT MON MAR 30 2015

NOTE: "FAIR" INDICATES FEW OR NO CLOUDS BELOW 12,000 FEET WITH NO
SIGNIFICANT WEATHER AND/OR OBSTRUCTION TO VISIBILITY.

MIZ047>049-052>055-059>063-066>070-074>076-081>083-302200-
SOUTHEAST LOWER MICHIGAN

CITY           SKY/WX    TMP DP  RH WIND       PRES   REMARKS
ADRIAN         SUNNY     56  22  26 NW25G33   29.93S
ALMA           MOSUNNY   53  23  30 NW16G22   29.91R
ANN ARBOR      SUNNY     56  20  24 W26G35    29.89S
BAD AXE        MOSUNNY   45  21  38 NW15G28   29.88R
DETROIT CITY   MOSUNNY   58  20  22 NW22G31   29.87R
DETROIT        MOSUNNY   58  22  24 W21G37    29.89R
FLINT          MOSUNNY   56  23  27 NW18G31   29.89R
GROSSE ILE     MOSUNNY   55  14  19 W20G35    29.87S
HILLSDALE      MOSUNNY   54  23  30 NW24G33   29.94S
HOWELL         MOSUNNY   54  21  28 W23G30    29.89S

CITY           SKY/WX    TMP DP  RH WIND       PRES   REMARKS
JACKSON        MOSUNNY   54  23  30 NW25G31   29.92S
LAMBERTVILLE   SUNNY     57  21  24 W18G26    29.92F
LANSING        SUNNY     53  22  29 NW25G35   29.92R
LAPEER         NOT AVBL
MASON          SUNNY     53  21  28 NW24G35   29.91S
MONROE         MOSUNNY   55  25  30 W20G29    29.89S
MT. CLEMENS    PTSUNNY   53  22  29 NW23G31   29.84R
PONTIAC        PTSUNNY   54  20  26 NW25G37   29.86S
PORT HOPE        N/A     39  28  64 NW3       29.88R
PORT HURON     CLOUDY    48  28  46 NE15G23   29.89R
TRI CITIES     SUNNY     52  21  29 NW22G35   29.90R
YPSILANTI      MOSUNNY   59  20  22 NW22G39   29.88S
$$
MIZ043>046-050>051-056>058-064>065-071>073-077>080-302200-
SOUTHWEST LOWER MICHIGAN

CITY           SKY/WX    TMP DP  RH WIND       PRES   REMARKS
BATTLE CREEK   MOSUNNY   54  23  30 NW20G31   29.96R
BENTON HARBOR  PTSUNNY   54  26  34 SW13      29.97F
BIG RAPIDS     MOSUNNY   49  23  35 NW17G24   29.91S
COLDWATER      MOSUNNY   54  22  28 W20G28    29.96R
HOLLAND        PTSUNNY   53  30  41 W10       29.97F
GRAND RAPIDS   PTSUNNY   53  25  33 W20G30    29.94S
KALAMAZOO      MOSUNNY   55  23  28 NW21G32   29.97S
MARSHALL       PTSUNNY   55  24  30 W21G37    29.94R
MUSKEGON       PTSUNNY   50  29  44 W8        29.96F
$$
MIZ016>042-302200-
NORTHERN LOWER MICHIGAN

CITY           SKY/WX    TMP DP  RH WIND       PRES   REMARKS
ALPENA         PTSUNNY   40  21  46 NW15G24   29.89S
BEAVER ISLAND  SUNNY     40  25  55 N5        29.92F
BELLAIRE       SUNNY     41  26  55 N6        29.94F
CADILLAC       SUNNY     46  25  44 NW10      29.90F
CHARLEVOIX     SUNNY     40  28  62 W8        29.97S
FRANKFORT      CLEAR     47  22  37 E6        29.93S
GAYLORD        PTSUNNY   37  23  56 NW8G21    29.90S
GRAYLING         N/A     41  20  43 NW17      29.92S
HARBOR SPRINGS SUNNY     36  29  73 SW5       29.93S
HOUGHTON LAKE  SUNNY     44  18  35 NW21G28   29.91R
MANISTEE       SUNNY     46  27  46 NW5       29.94F
OSCODA         CLOUDY    42  23  47 NW21G28   29.88S
PELLSTON       MOSUNNY   39  26  59 W16       29.92S
TRAVERSE CITY  MOSUNNY   45  24  43 N9        29.92F
$$
MIZ007>008-015-302200-
EASTERN UPPER MICHIGAN

CITY           SKY/WX    TMP DP  RH WIND       PRES   REMARKS
KINROSS        SUNNY     34  27  75 NW13G22   29.89R
MACKINAC ISLAN PTSUNNY   38  26  62 W17       29.90R
NEWBERRY       SUNNY     35  24  63 NW10G16   29.90S
S. S. MARIE    CLOUDY    32  23  69 NW12      29.90R
$$
MIZ004>006-011>014-085-302200-
CENTRAL UPPER MICHIGAN

CITY           SKY/WX    TMP DP  RH WIND       PRES   REMARKS
MANISTIQUE     SUNNY     43  28  57 NW6       29.88F
ESCANABA       SUNNY     43  27  52 SE12      29.87F
MENOMINEE      MOSUNNY   46  25  42 SE10      29.88F
SAWYER-GWINN   SUNNY     36  27  69 NE8       29.88F
$$
MIZ001>003-009>011-084-302200-
WESTERN UPPER MICHIGAN

CITY           SKY/WX    TMP DP  RH WIND       PRES   REMARKS
IRON MOUNTAIN  MOSUNNY   50  18  28 W12G22    29.84F
HOUGHTON       SUNNY     40  20  44 CALM      29.86F
COPPER HARBOR    N/A     33  25  72 E5        29.90S
IRONWOOD       CLOUDY    48  23  37 E3        29.81F
$$

ABBREVIATIONS USED IN REMARKS
   TC - TEMPERATURE IN CELSIUS
  WCI - WIND CHILL INDEX
   HX - HEAT INDEX
  VSB - VISIBILITY




USA.gov is the U.S. government's official web portal to all federal, state and local government web resources and services.